Location: Filler
(36.7551°N, 30.4456°E)
Time: 07:51:40
(UTC+00:00)

ASTEX 1 - Pass Details

Date: 19 June 2024
Orbit: 717 x 737 km, 92.7° (Epoch: 22 July)

Event Time Altitude Azimuth Distance (km) Brightness Sun altitude
Exits shadow 00:41:39 33° 190° (S) 1,201 4.0 -18.7°
Maximum altitude 00:43:49 69° 265° (W) 768 3.3 -18.5°
Drops below altitude 10° 00:48:40 10° 349° (N) 2,207 6.4 -17.8°
Sets 00:50:59 0° 352° (N) 3,132 7.3 -17.5°
